TimePDT,TemperatureF,Dew PointF,Humidity,Sea Level PressureIn,VisibilityMPH,Wind Direction,Wind SpeedMPH,Gust SpeedMPH,PrecipitationIn,Events,Conditions,WindDirDegrees,DateUTC
12:56 AM,28.9,-0.9,28,30.00,10.0,SE,5.8,-,N/A,,Clear,140,2012-10-08 07:56:00
1:56 AM,28.9,1.9,32,30.00,10.0,SSE,6.9,-,N/A,,Clear,160,2012-10-08 08:56:00
2:56 AM,28.0,3.0,34,29.99,10.0,SSE,6.9,-,N/A,,Clear,150,2012-10-08 09:56:00
3:56 AM,30.0,3.9,33,29.97,10.0,SE,3.5,-,N/A,,Clear,140,2012-10-08 10:56:00
4:56 AM,28.0,3.9,36,29.99,10.0,ESE,5.8,-,N/A,,Clear,120,2012-10-08 11:56:00
5:56 AM,26.1,3.0,37,30.00,10.0,Calm,Calm,-,N/A,,Clear,0,2012-10-08 12:56:00
6:56 AM,24.1,-2.0,32,30.04,10.0,Calm,Calm,-,N/A,,Clear,0,2012-10-08 13:56:00
7:56 AM,30.9,6.1,35,30.05,7.0,SE,3.5,-,N/A,,Clear,130,2012-10-08 14:56:00
8:56 AM,44.1,3.9,19,30.02,10.0,Calm,Calm,-,N/A,,Clear,0,2012-10-08 15:56:00
9:56 AM,54.0,5.0,14,30.01,10.0,Calm,Calm,-,N/A,,Clear,0,2012-10-08 16:56:00
10:56 AM,61.0,3.9,10,29.99,10.0,Calm,Calm,-,N/A,,Clear,0,2012-10-08 17:56:00
11:56 AM,64.9,3.9,9,29.97,10.0,Calm,Calm,-,N/A,,Clear,0,2012-10-08 18:56:00
12:56 PM,71.1,3.0,7,29.95,10.0,Variable,3.5,-,N/A,,Clear,0,2012-10-08 19:56:00
1:56 PM,73.0,3.0,6,29.92,10.0,West,6.9,-,N/A,,Clear,260,2012-10-08 20:56:00
2:56 PM,73.9,3.9,7,29.90,10.0,WSW,8.1,-,N/A,,Clear,240,2012-10-08 21:56:00
3:56 PM,75.0,3.9,6,29.89,10.0,West,5.8,-,N/A,,Clear,260,2012-10-08 22:56:00
4:56 PM,73.9,5.0,7,29.89,10.0,WNW,5.8,-,N/A,,Clear,290,2012-10-08 23:56:00
5:56 PM,70.0,5.0,8,29.90,10.0,WNW,3.5,-,N/A,,Clear,290,2012-10-09 00:56:00
6:56 PM,59.0,5.0,12,29.92,10.0,NW,3.5,-,N/A,,Clear,320,2012-10-09 01:56:00
7:56 PM,51.1,6.1,16,29.94,10.0,Calm,Calm,-,N/A,,Clear,0,2012-10-09 02:56:00
8:56 PM,48.9,3.9,16,29.92,10.0,Calm,Calm,-,N/A,,Clear,0,2012-10-09 03:56:00
9:56 PM,37.0,1.9,23,29.94,10.0,SE,6.9,-,N/A,,Clear,140,2012-10-09 04:56:00
10:56 PM,37.0,3.9,25,29.93,10.0,SSE,6.9,-,N/A,,Clear,150,2012-10-09 05:56:00
11:56 PM,35.1,6.1,30,29.94,10.0,Calm,Calm,-,N/A,,Clear,0,2012-10-09 06:56:00